| time (UTC) | temp C | wind direction | speed KPH | gust KPH | rain 1hr cm | rain 24hr cm | rain mn cm | humidity % | barometer mb |
| 20260504202649 | 26 | 27 | 3.2 | 4.8 | 0.00 | 0.00 | 0.00 | 36 | 1012.8 |
| 20260504202146 | 26 | 20 | 1.6 | 3.2 | 0.00 | 0.00 | 0.00 | 36 | 1012.8 |
| 20260504201643 | 25 | 164 | 0.0 | 3.2 | 0.00 | 0.00 | 0.00 | 38 | 1012.8 |
| 20260504201141 | 25 | 131 | 0.0 | 3.2 | 0.00 | 0.00 | 0.00 | 38 | 1012.8 |
| 20260504200638 | 24 | 67 | 1.6 | 11.3 | 0.00 | 0.00 | 0.00 | 40 | 1012.8 |
| 20260504200134 | 23 | 53 | 1.6 | 4.8 | 0.00 | 0.00 | 0.00 | 39 | 1012.8 |
| 20260504195630 | 23 | 136 | 0.0 | 4.8 | 0.00 | 0.00 | 0.00 | 38 | 1012.8 |
| 20260504195127 | 24 | 101 | 1.6 | 3.2 | 0.00 | 0.00 | 0.00 | 38 | 1012.8 |
| 20260504194623 | 23 | 53 | 1.6 | 4.8 | 0.00 | 0.00 | 0.00 | 39 | 1012.8 |
| 20260504194119 | 23 | 109 | 3.2 | 11.3 | 0.00 | 0.00 | 0.00 | 40 | 1012.8 |
| 20260504193616 | 23 | 79 | 1.6 | 4.8 | 0.00 | 0.00 | 0.00 | 42 | 1012.8 |
| 20260504193114 | 23 | 82 | 3.2 | 4.8 | 0.00 | 0.00 | 0.00 | 41 | 1013.1 |
| 20260504192612 | 23 | 248 | 0.0 | 3.2 | 0.00 | 0.00 | 0.00 | 41 | 1012.8 |
| 20260504192110 | 23 | 20 | 3.2 | 6.4 | 0.00 | 0.00 | 0.00 | 42 | 1012.8 |
| 20260504191608 | 23 | 318 | 4.8 | 6.4 | 0.00 | 0.00 | 0.00 | 43 | 1012.8 |
| 20260504191104 | 23 | 326 | 4.8 | 6.4 | 0.00 | 0.00 | 0.00 | 42 | 1012.8 |
| 20260504190600 | 23 | 101 | 1.6 | 4.8 | 0.00 | 0.00 | 0.00 | 42 | 1012.8 |
| 20260504190056 | 23 | 112 | 3.2 | 4.8 | 0.00 | 0.00 | 0.00 | 42 | 1012.8 |
| 20260504185553 | 23 | 71 | 1.6 | 1.6 | 0.00 | 0.00 | 0.00 | 42 | 1012.8 |
| 20260504185050 | 23 | 193 | 3.2 | 4.8 | 0.00 | 0.00 | 0.00 | 42 | 1012.8 |
| 20260504184545 | 23 | 289 | 3.2 | 3.2 | 0.00 | 0.00 | 0.00 | 44 | 1012.8 |
| 20260504184041 | 22 | 115 | 1.6 | 3.2 | 0.00 | 0.00 | 0.00 | 44 | 1012.8 |
| 20260504183538 | 22 | 47 | 3.2 | 4.8 | 0.00 | 0.00 | 0.00 | 46 | 1012.8 |
| 20260504183036 | 21 | 347 | 6.4 | 11.3 | 0.00 | 0.00 | 0.00 | 46 | 1012.8 |
| 20260504182533 | 21 | 81 | 1.6 | 3.2 | 0.00 | 0.00 | 0.00 | 47 | 1012.8 |
| 20260504182030 | 21 | 232 | 6.4 | 6.4 | 0.00 | 0.00 | 0.00 | 45 | 1012.8 |
| 20260504181527 | 21 | 220 | 3.2 | 4.8 | 0.00 | 0.00 | 0.00 | 49 | 1012.8 |
| 20260504181026 | 21 | 151 | 1.6 | 3.2 | 0.00 | 0.00 | 0.00 | 50 | 1012.8 |
| 20260504180524 | 21 | 297 | 1.6 | 4.8 | 0.00 | 0.00 | 0.00 | 49 | 1012.8 |
| 20260504180023 | 19 | 32 | 3.2 | 11.3 | 0.00 | 0.00 | 0.00 | 51 | 1013.1 |
| 20260504175519 | 20 | 319 | 3.2 | 4.8 | 0.00 | 0.00 | 0.00 | 49 | 1012.8 |
| 20260504175017 | 20 | 180 | 1.6 | 9.7 | 0.00 | 0.00 | 0.00 | 50 | 1013.1 |
| 20260504174514 | 20 | 111 | 0.0 | 6.4 | 0.00 | 0.00 | 0.00 | 52 | 1012.8 |
| 20260504174011 | 20 | 89 | 1.6 | 4.8 | 0.00 | 0.00 | 0.00 | 51 | 1012.8 |
| 20260504173508 | 20 | 113 | 0.0 | 6.4 | 0.00 | 0.00 | 0.00 | 51 | 1013.1 |
| 20260504173005 | 20 | 84 | 3.2 | 3.2 | 0.00 | 0.00 | 0.00 | 53 | 1012.8 |
| 20260504172501 | 19 | 108 | 3.2 | 6.4 | 0.00 | 0.00 | 0.00 | 54 | 1012.8 |
| 20260504171957 | 19 | 47 | 1.6 | 9.7 | 0.00 | 0.00 | 0.00 | 55 | 1012.8 |
| 20260504171455 | 19 | 106 | 1.6 | 3.2 | 0.00 | 0.00 | 0.00 | 56 | 1012.8 |
| 20260504170951 | 18 | 89 | 0.0 | 3.2 | 0.00 | 0.00 | 0.00 | 56 | 1012.8 |
| 20260504170448 | 19 | 64 | 1.6 | 9.7 | 0.00 | 0.00 | 0.00 | 57 | 1012.8 |
| 20260504160408 | 17 | 29 | 1.6 | 4.8 | 0.00 | 0.00 | 0.00 | 63 | 1012.5 |
| 20260504150831 | 15 | 108 | 0.0 | 0.0 | 0.00 | 0.00 | 0.00 | 70 | 1012.1 |
| 20260504150328 | 15 | 127 | 0.0 | 0.0 | 0.00 | 0.00 | 0.00 | 71 | 1012.1 |
| 20260504141258 | 14 | 96 | 0.0 | 0.0 | 0.00 | 0.00 | 0.00 | 65 | 1011.8 |
| 20260504140755 | 14 | 95 | 0.0 | 3.2 | 0.00 | 0.00 | 0.00 | 65 | 1011.8 |
| 20260504140250 | 13 | 93 | 0.0 | 1.6 | 0.00 | 0.00 | 0.00 | 65 | 1011.8 |
| 20260504130719 | 11 | 122 | 0.0 | 0.0 | 0.00 | 0.00 | 0.00 | 71 | 1011.3 |
| 20260504130215 | 11 | 126 | 0.0 | 0.0 | 0.00 | 0.00 | 0.00 | 71 | 1011.3 |
| 20260504120139 | 10 | 141 | 0.0 | 0.0 | 0.00 | 0.00 | 0.00 | 77 | 1011.3 |
| 20260504110606 | 10 | 106 | 0.0 | 0.0 | 0.00 | 0.00 | 0.00 | 81 | 1011.8 |
| 20260504100528 | 10 | 113 | 0.0 | 0.0 | 0.00 | 0.00 | 0.00 | 79 | 1011.8 |
| 20260504081921 | 12 | 120 | 0.0 | 0.0 | 0.00 | 0.00 | 0.00 | 66 | 1011.8 |
| 20260504081418 | 13 | 121 | 0.0 | 0.0 | 0.00 | 0.00 | 0.00 | 65 | 1011.8 |
| 20260504080914 | 13 | 112 | 0.0 | 0.0 | 0.00 | 0.00 | 0.00 | 63 | 1011.8 |
| 20260504080411 | 13 | 112 | 0.0 | 0.0 | 0.00 | 0.00 | 0.00 | 62 | 1011.3 |
| 20260504070338 | 16 | 115 | 0.0 | 0.0 | 0.00 | 0.00 | 0.00 | 52 | 1012.1 |
| 20260504050715 | 17 | 179 | 0.0 | 1.6 | 0.00 | 0.00 | 0.00 | 49 | 1012.5 |
| 20260504050212 | 17 | 96 | 1.6 | 1.6 | 0.00 | 0.00 | 0.00 | 49 | 1012.5 |
| 20260504045709 | 17 | 157 | 0.0 | 1.6 | 0.00 | 0.00 | 0.00 | 48 | 1012.5 |
| 20260504045204 | 17 | 126 | 1.6 | 1.6 | 0.00 | 0.00 | 0.00 | 49 | 1012.5 |
| 20260504044702 | 17 | 205 | 3.2 | 3.2 | 0.00 | 0.00 | 0.00 | 48 | 1012.5 |
| 20260504044159 | 18 | 103 | 1.6 | 1.6 | 0.00 | 0.00 | 0.00 | 46 | 1012.5 |
| 20260504043656 | 18 | 344 | 1.6 | 1.6 | 0.00 | 0.00 | 0.00 | 47 | 1012.5 |
| 20260504043153 | 18 | 103 | 1.6 | 1.6 | 0.00 | 0.00 | 0.00 | 47 | 1012.5 |
| 20260504042650 | 18 | 111 | 0.0 | 1.6 | 0.00 | 0.00 | 0.00 | 47 | 1012.5 |
| 20260504042147 | 18 | 111 | 1.6 | 3.2 | 0.00 | 0.00 | 0.00 | 44 | 1012.5 |
| 20260504041642 | 18 | 84 | 1.6 | 1.6 | 0.00 | 0.00 | 0.00 | 45 | 1012.5 |
| 20260504041138 | 18 | 75 | 1.6 | 1.6 | 0.00 | 0.00 | 0.00 | 44 | 1012.5 |
| 20260504040636 | 18 | 293 | 1.6 | 3.2 | 0.00 | 0.00 | 0.00 | 46 | 1012.5 |
| 20260504040133 | 18 | 96 | 0.0 | 1.6 | 0.00 | 0.00 | 0.00 | 49 | 1012.5 |
| 20260504035629 | 18 | 120 | 0.0 | 1.6 | 0.00 | 0.00 | 0.00 | 49 | 1012.5 |
| 20260504035126 | 19 | 104 | 1.6 | 1.6 | 0.00 | 0.00 | 0.00 | 47 | 1012.5 |
| 20260504034624 | 19 | 69 | 1.6 | 1.6 | 0.00 | 0.00 | 0.00 | 43 | 1012.5 |
| 20260504034121 | 20 | 90 | 0.0 | 1.6 | 0.00 | 0.00 | 0.00 | 44 | 1012.1 |
| 20260504033619 | 20 | 96 | 0.0 | 1.6 | 0.00 | 0.00 | 0.00 | 43 | 1012.5 |
| 20260504033116 | 20 | 106 | 0.0 | 1.6 | 0.00 | 0.00 | 0.00 | 40 | 1012.5 |
| 20260504032612 | 20 | 105 | 0.0 | 1.6 | 0.00 | 0.00 | 0.00 | 44 | 1012.5 |
| 20260504032109 | 20 | 80 | 0.0 | 0.0 | 0.00 | 0.00 | 0.00 | 42 | 1012.5 |
| 20260504031607 | 20 | 97 | 1.6 | 1.6 | 0.00 | 0.00 | 0.00 | 40 | 1012.1 |
| 20260504031103 | 21 | 73 | 0.0 | 1.6 | 0.00 | 0.00 | 0.00 | 39 | 1012.5 |
| 20260504030600 | 21 | 106 | 1.6 | 1.6 | 0.00 | 0.00 | 0.00 | 37 | 1012.5 |
| 20260504030056 | 21 | 107 | 0.0 | 1.6 | 0.00 | 0.00 | 0.00 | 38 | 1012.1 |
| 20260504025553 | 21 | 111 | 1.6 | 1.6 | 0.00 | 0.00 | 0.00 | 36 | 1012.1 |
| 20260504025050 | 22 | 98 | 0.0 | 4.8 | 0.00 | 0.00 | 0.00 | 37 | 1012.5 |
| 20260504024547 | 22 | 76 | 0.0 | 1.6 | 0.00 | 0.00 | 0.00 | 35 | 1012.5 |
| 20260504024044 | 22 | 96 | 0.0 | 3.2 | 0.00 | 0.00 | 0.00 | 35 | 1012.5 |
| 20260504023540 | 22 | 88 | 1.6 | 3.2 | 0.00 | 0.00 | 0.00 | 34 | 1012.5 |
| 20260504023036 | 22 | 333 | 3.2 | 4.8 | 0.00 | 0.00 | 0.00 | 34 | 1012.5 |
| 20260504022532 | 22 | 60 | 1.6 | 3.2 | 0.00 | 0.00 | 0.00 | 36 | 1012.5 |
| 20260504022029 | 23 | 75 | 1.6 | 4.8 | 0.00 | 0.00 | 0.00 | 33 | 1012.5 |
| 20260504021526 | 23 | 119 | 1.6 | 6.4 | 0.00 | 0.00 | 0.00 | 34 | 1012.5 |
| 20260504021023 | 23 | 87 | 1.6 | 3.2 | 0.00 | 0.00 | 0.00 | 33 | 1012.5 |
| 20260504020520 | 23 | 108 | 1.6 | 3.2 | 0.00 | 0.00 | 0.00 | 32 | 1012.8 |
| 20260504020017 | 23 | 348 | 3.2 | 3.2 | 0.00 | 0.00 | 0.00 | 31 | 1012.5 |
| 20260504015513 | 24 | 206 | 1.6 | 3.2 | 0.00 | 0.00 | 0.00 | 31 | 1012.5 |
| 20260504015009 | 25 | 346 | 1.6 | 4.8 | 0.00 | 0.00 | 0.00 | 30 | 1012.8 |
| 20260504014505 | 25 | 256 | 3.2 | 4.8 | 0.00 | 0.00 | 0.00 | 30 | 1012.8 |
| 20260504014003 | 26 | 91 | 0.0 | 3.2 | 0.00 | 0.00 | 0.00 | 31 | 1012.8 |
| 20260504013501 | 25 | 124 | 0.0 | 1.6 | 0.00 | 0.00 | 0.00 | 32 | 1012.8 |
| 20260504012956 | 25 | 124 | 0.0 | 1.6 | 0.00 | 0.00 | 0.00 | 32 | 1012.8 |
| 20260504012455 | 25 | 107 | 1.6 | 6.4 | 0.00 | 0.00 | 0.00 | 32 | 1012.8 |
| 20260504011952 | 25 | 121 | 0.0 | 1.6 | 0.00 | 0.00 | 0.00 | 32 | 1012.8 |
| 20260504011448 | 25 | 12 | 1.6 | 3.2 | 0.00 | 0.00 | 0.00 | 32 | 1013.1 |
| 20260504010944 | 25 | 40 | 1.6 | 3.2 | 0.00 | 0.00 | 0.00 | 33 | 1013.1 |
| 20260504010440 | 25 | 62 | 1.6 | 4.8 | 0.00 | 0.00 | 0.00 | 33 | 1013.1 |
| 20260504005936 | 26 | 110 | 1.6 | 3.2 | 0.00 | 0.00 | 0.00 | 31 | 1013.5 |
| 20260504005433 | 25 | 148 | 1.6 | 3.2 | 0.00 | 0.00 | 0.00 | 33 | 1013.1 |
| 20260504004931 | 25 | 295 | 3.2 | 4.8 | 0.00 | 0.00 | 0.00 | 33 | 1013.5 |
| 20260504004429 | 25 | 166 | 1.6 | 4.8 | 0.00 | 0.00 | 0.00 | 33 | 1013.5 |
| 20260504003925 | 26 | 335 | 3.2 | 4.8 | 0.00 | 0.00 | 0.00 | 31 | 1013.5 |
| 20260504003422 | 25 | 149 | 1.6 | 3.2 | 0.00 | 0.00 | 0.00 | 33 | 1013.5 |
| 20260504002918 | 27 | 189 | 1.6 | 1.6 | 0.00 | 0.00 | 0.00 | 31 | 1013.5 |
| 20260504002415 | 26 | 100 | 0.0 | 3.2 | 0.00 | 0.00 | 0.00 | 31 | 1013.5 |
| 20260504001913 | 26 | 63 | 4.8 | 4.8 | 0.00 | 0.00 | 0.00 | 32 | 1013.5 |
| 20260504001410 | 26 | 283 | 3.2 | 9.7 | 0.00 | 0.00 | 0.00 | 32 | 1013.5 |
| 20260504000906 | 26 | 69 | 0.0 | 3.2 | 0.00 | 0.00 | 0.00 | 31 | 1013.5 |
| 20260504000404 | 26 | 311 | 3.2 | 4.8 | 0.00 | 0.00 | 0.00 | 32 | 1013.5 |
| 20260503235901 | 25 | 349 | 4.8 | 6.4 | 0.00 | 0.00 | 0.00 | 33 | 1013.5 |
| 20260503235359 | 25 | 147 | 3.2 | 4.8 | 0.00 | 0.00 | 0.00 | 33 | 1013.8 |
| 20260503234856 | 25 | 115 | 3.2 | 6.4 | 0.00 | 0.00 | 0.00 | 34 | 1013.5 |
| 20260503234354 | 26 | 150 | 1.6 | 6.4 | 0.00 | 0.00 | 0.00 | 33 | 1013.8 |
| 20260503233851 | 25 | 109 | 3.2 | 4.8 | 0.00 | 0.00 | 0.00 | 33 | 1013.8 |
| 20260503233347 | 26 | 76 | 4.8 | 9.7 | 0.00 | 0.00 | 0.00 | 32 | 1013.8 |
| 20260503232844 | 26 | 20 | 1.6 | 4.8 | 0.00 | 0.00 | 0.00 | 33 | 1013.8 |
| 20260503232341 | 26 | 322 | 3.2 | 3.2 | 0.00 | 0.00 | 0.00 | 31 | 1014.1 |
| 20260503231839 | 26 | 188 | 1.6 | 3.2 | 0.00 | 0.00 | 0.00 | 32 | 1014.1 |
| 20260503231335 | 25 | 113 | 0.0 | 3.2 | 0.00 | 0.00 | 0.00 | 32 | 1014.1 |
| 20260503230826 | 25 | 350 | 4.8 | 9.7 | 0.00 | 0.00 | 0.00 | 34 | 1014.1 |
| 20260503230323 | 25 | 191 | 4.8 | 9.7 | 0.00 | 0.00 | 0.00 | 34 | 1014.1 |
| 20260503225821 | 25 | 103 | 6.4 | 11.3 | 0.00 | 0.00 | 0.00 | 34 | 1014.1 |
| 20260503225316 | 26 | 135 | 3.2 | 6.4 | 0.00 | 0.00 | 0.00 | 34 | 1014.1 |
| 20260503224813 | 25 | 123 | 0.0 | 3.2 | 0.00 | 0.00 | 0.00 | 34 | 1014.5 |
| 20260503224310 | 25 | 190 | 1.6 | 4.8 | 0.00 | 0.00 | 0.00 | 34 | 1014.5 |
| 20260503223808 | 25 | 39 | 3.2 | 4.8 | 0.00 | 0.00 | 0.00 | 34 | 1014.5 |
| 20260503223305 | 25 | 319 | 3.2 | 6.4 | 0.00 | 0.00 | 0.00 | 35 | 1014.5 |
| 20260503222801 | 25 | 176 | 3.2 | 4.8 | 0.00 | 0.00 | 0.00 | 35 | 1014.5 |
| 20260503222300 | 24 | 323 | 3.2 | 9.7 | 0.00 | 0.00 | 0.00 | 36 | 1014.8 |
| 20260503221757 | 25 | 209 | 3.2 | 9.7 | 0.00 | 0.00 | 0.00 | 36 | 1014.8 |
| 20260503221255 | 25 | 265 | 1.6 | 4.8 | 0.00 | 0.00 | 0.00 | 36 | 1014.8 |
| 20260503220751 | 25 | 246 | 0.0 | 6.4 | 0.00 | 0.00 | 0.00 | 35 | 1014.8 |
| 20260503220248 | 25 | 134 | 3.2 | 6.4 | 0.00 | 0.00 | 0.00 | 34 | 1014.8 |
| 20260503215745 | 25 | 122 | 0.0 | 4.8 | 0.00 | 0.00 | 0.00 | 33 | 1015.2 |
| 20260503215242 | 25 | 38 | 3.2 | 4.8 | 0.00 | 0.00 | 0.00 | 34 | 1014.8 |
| 20260503214740 | 24 | 62 | 3.2 | 9.7 | 0.00 | 0.00 | 0.00 | 36 | 1015.2 |
| 20260503214237 | 25 | 70 | 3.2 | 4.8 | 0.00 | 0.00 | 0.00 | 36 | 1015.2 |
| 20260503213735 | 24 | 129 | 1.6 | 6.4 | 0.00 | 0.00 | 0.00 | 36 | 1015.2 |
| 20260503213232 | 23 | 81 | 1.6 | 11.3 | 0.00 | 0.00 | 0.00 | 37 | 1015.2 |
| 20260503212729 | 23 | 8 | 3.2 | 11.3 | 0.00 | 0.00 | 0.00 | 37 | 1015.2 |
| 20260503212226 | 23 | 21 | 3.2 | 14.5 | 0.00 | 0.00 | 0.00 | 39 | 1015.2 |
| 20260503211724 | 23 | 312 | 3.2 | 6.4 | 0.00 | 0.00 | 0.00 | 38 | 1015.2 |
| 20260503211220 | 23 | 36 | 4.8 | 6.4 | 0.00 | 0.00 | 0.00 | 39 | 1015.5 |
| 20260503210715 | 23 | 65 | 1.6 | 6.4 | 0.00 | 0.00 | 0.00 | 39 | 1015.5 |
| 20260503210213 | 23 | 328 | 3.2 | 6.4 | 0.00 | 0.00 | 0.00 | 40 | 1015.5 |
| 20260503205708 | 24 | 58 | 3.2 | 6.4 | 0.00 | 0.00 | 0.00 | 38 | 1015.5 |
| 20260503205205 | 23 | 16 | 4.8 | 12.9 | 0.00 | 0.00 | 0.00 | 39 | 1015.5 |
| 20260503204701 | 23 | 84 | 1.6 | 9.7 | 0.00 | 0.00 | 0.00 | 39 | 1015.5 |
| 20260503204159 | 23 | 47 | 1.6 | 11.3 | 0.00 | 0.00 | 0.00 | 37 | 1015.5 |
| 20260503203656 | 23 | 33 | 6.4 | 11.3 | 0.00 | 0.00 | 0.00 | 37 | 1015.2 |
| 20260503203154 | 24 | 142 | 1.6 | 6.4 | 0.00 | 0.00 | 0.00 | 36 | 1015.5 |